Weather in Roros

Norway     62°34′32″N   11°22′41″E
temp.,
°C
wind,
m/s
gust,
m/s
humid.,
%
clouds,
%
prec.,
mm/h
press.,
hPa
HPBL,
m
20 april, tue
tue2023:00+2s2291100 0.0 102416
02:00+2s3290100 0.0 102216
05:00+2s338992 0.0 102020
08:00+1s229443 0.0 101831
11:00+1s23100100 0.0 101799
14:00+1s33100100 0.0 1015214
17:00+1s4599100 0.0 1012227
20:00+1s4493100 0.0 100935
21 april, wed
wed2123:00+2s5680100 0.0 100664
02:000nw4592100 0.1 100573
05:00−2nnw61297100 1.3 1005616
08:00−2nnw71296100 2.8 1004773
11:00−1nnw91592100 1.4 10041104
14:00−1nnw101686100 2.1 10051372
17:00−2nnw132083100 0.1 10071429
20:00−4nnw121985100 0.2 10091209
22 april, thu
thu2223:00−5nnw142081100 0.1 10111273
02:00−5nnw111979100 0.1 10121090
05:00−5nnw8159093 0.0 1012816
08:00−4nw10179195 0.3 10121368
11:00−4nnw13178296 0.3 10141586
14:00−3nnw13188498 0.6 10141601
17:00−3nw14208794 0.6 10151644
20:00−4nnw11178330 0.9 1017811
23 april, fri
fri2323:00−5nnw10158536 0.0 1018576
02:00−6nnw814855 0.0 1020344
05:00−6nnw713875 0.0 1021305
08:00−5nnw612895 0.0 1021757
11:00−3nw11137995 0.3 10211232
14:00−2nnw111477100 0.8 10211306
17:00−3nnw10148181 0.7 10221370
20:00−5nnw8138533 0.8 1023672
24 april, sat
sat2423:00−6nnw7129024 0.1 1024475
02:00−6nw712905 0.1 1025360
05:00−7nnw713915 0.0 1026357
08:00−5nnw814855 0.1 10271134
11:00−4nnw10147584 0.1 10271474
14:00−3nnw10147677 0.4 10281497
17:00−3nnw9148596 0.5 10281331
20:00−4nnw9158999 1.1 10291173